Terminal Aerodrome Forecast
Issued by NWS

Home | Current Version | Previous Version | Text Only | Print | Product List | Glossary On
Versions: 1 2 3 4 5 6 7 8 9 10 11 12 13 14 15 16
000
FTUS45 KRIW 011736
TAFCPR
TAF
KCPR 011736Z 0118/0218 22011KT P6SM SCT060 BKN090
     FM012300 VRB05KT P6SM VCSH SCT040 BKN060
     FM020900 01006KT P6SM VCSH SCT019 BKN030
     FM021400 VRB05KT P6SM SCT020 BKN035=

USA.gov is the U.S. government's official web portal to all federal, state and local government web resources and services.